Location: Kuffner-Sternwarte
(48.2130°N, 16.2960°E)
Time: 10:17:30
(UTC+02:00)

COROT - Pass Details

Date: 23 May 2018
Orbit: 602 x 886 km, 90.0° (Epoch: 19 October)

Event Time Altitude Azimuth Distance (km) Brightness Sun altitude
Rises 23:37:55 0° 341° (NNW) 3,073 10.8 -19.1°
Reaches altitude 10° 23:42:09 10° 304° (NW) 2,228 9.1 -19.3°
Maximum altitude 23:43:12 11° 292° (WNW) 2,200 8.9 -19.4°
Drops below altitude 10° 23:44:17 10° 279° (W) 2,265 8.7 -19.5°
Sets 23:48:47 0° 243° (WSW) 3,269 9.1 -19.7°
